Tracking 25612 objects as of 20-May-2022
HD Live streaming from Space Station
objects crossing your sky now

STARLINK-24

Track STARLINK-24 now!
10-day predictions
STARLINK-24 is classified as:


NORAD ID: 44238
Int'l Code: 2019-029D
Perigee: 475.5 km
Apogee: 483.6 km
Inclination: 53.0 °
Period: 94.0 minutes
Semi major axis: 6850 km
RCS: Unknown
Launch date: May 24, 2019
Source: United States (US)
Launch site: AIR FORCE EASTERN TEST RANGE (AFETR)
aabbcc
Your satellite tracking list
Your tracking list is empty




NASA's NSSDC Master Catalog

Two Line Element Set (TLE):
1 44238U 19029D   22140.57182368  .00115825  00000-0  37495-2 0  9993
2 44238  53.0050 240.8421 0005938 310.0006  50.0471 15.31141346163952
Source of the keplerian elements: AFSPC